NOAA 16 DEB, 41408

Orbit data source: Space-Track

NOAA 16 DEB, 41408 is space debris in SSO originally from a launch on Thu, 21 Sep 2000 UTC launched from the Air Force Western Test Range (AFWTR). Debris objects in space refer to the collection of defunct objects orbiting the Earth. Examples of debris include non-operational satellites, rocket bodies, and fragments generated from explosions, collisions, or faulty payload assembly.

Loading next visibility...
Identifier
41408, 2000-055KM
Orbit
SSO
Last TLE update
1 day ago
Origin
Manufacturer
Unknown
Mission
Spacecraft
Bus & Motor
Unknown
Mass
Unknown
Launch date (UTC)
2000-09-21 (25 years ago)
Launch vehicle
Unknown
Launch site
Air Force Western Test Range (AFWTR)
Object type
Payload
Rocket body
Debris
Shape & HBR
Unknown
Radar Cross Section
Small (<0.1 m²)

Expand to show TLE details & history

TLE from 1 day ago
0 NOAA 16 DEB
1 41408U 00055KM  25128.21645165  .00004530  00000-0  17651-2 0  9999
2 41408  98.7276 218.5644 0008989   5.0812 355.0460 14.30185223477277
Epoch: 2025-05-08T05:11Z
Definitive object data (Epoch: 2025-05-08T05:11:41.422Z)
Latitude
-0°
Longitude
-85.64832°
Altitude
787.618 km
Speed
7.463 km/s
True Right ascension
14h 34m 15s
True Declination
0° 00' 00"
Sunlit
Object was in full shadow at TLE epoch
Visualization TLE readout
Latitude
-38.27973°
Longitude
88.45483°
Altitude
810.81 km
Speed
7.444 km/s
Apparent Right ascension
02h 01m 58s
Apparent Declination
-38° 53' 43"
Sunlit
Object is in daylight
Visualization observer readout
Local Sidereal Time
13:51:57
Azimuth
296.994° NW
Elevation
-87.811°
Doppler factor
1
Orbital elements
Apogee altitude
794.699 km
Perigee altitude
781.816 km
Semi-major axis
7,166.395 km
Eccentricity
0.0008989
Inclination
98.7276°
RAAN
218.5644°
Arg. of periapsis
5.0812°
True anomaly
355.03709°
Mean anomaly
355.046°
Eccentric anomaly
355.04155°
Mean motion
3.5776 °/min
BSTAR
0.0017651
Orbital period
100.63 mins
Loading maneuver chart data...
Loading SW <> Apogee altitude chart data...
Loading historical data...
Loading historical data...
Loading historical data...
Loading historical data...
Loading historical data...
Loading historical data...
Loading historical data...

NOAA 16 DEB Visibility forecast

Observer location: undefined°, undefined°

Span
Click to sort rows by Start time (UTC) header in descending order
Start Az.
Max El. time (UTC)
Max El. Az.
Max El.
End time (UTC)
End Az.
9 mins2025-05-09 06:29:14.095Z191.049° SSW2025-05-09 06:34:14.095Z276.502° WNW33.733°2025-05-09 06:38:14.095Z330.736° NNW
9 mins2025-05-09 18:43:14.095Z20.656° NNE2025-05-09 18:47:14.095Z107.892° ESE43.269°2025-05-09 18:52:14.095Z186.397° SSW
4 mins2025-05-09 20:24:14.095Z321.811° NNW2025-05-09 20:26:14.095Z296.477° NW14.586°2025-05-09 20:28:14.095Z271.994° WNW
|